Time,TemperatureF,DewpointF,PressureIn,WindDirection,WindDirectionDegrees,WindSpeedMPH,WindSpeedGustMPH,Humidity,HourlyPrecipIn,Conditions,Clouds,dailyrainin,SolarRadiationWatts/m^2,SoftwareType,DateUTC
2013-05-24 00:00:00,63.4,62.2,29.78,South,187,1.0,4.0,96,0.06,,---,0.47,0.00,VWS V14.01,2013-05-24 04:00:00,
2013-05-24 00:01:00,63.3,62.1,29.78,South,187,3.0,3.0,96,0.01,,---,0.00,0.00,VWS V14.01,2013-05-24 04:01:00,
2013-05-24 00:06:00,63.3,62.1,29.78,SSW,213,0.0,6.0,96,0.02,,---,0.01,0.00,VWS V14.01,2013-05-24 04:06:00,
2013-05-24 00:11:00,63.3,62.1,29.78,SSW,213,1.0,6.0,96,0.02,,---,0.01,0.00,VWS V14.01,2013-05-24 04:11:00,
2013-05-24 00:16:00,63.2,62.0,29.78,SSW,213,1.0,6.0,96,0.02,,---,0.01,0.00,VWS V14.01,2013-05-24 04:16:00,
2013-05-24 00:21:00,63.2,62.0,29.78,SSW,212,0.0,6.0,96,0.02,,---,0.01,0.00,VWS V14.01,2013-05-24 04:21:00,
2013-05-24 00:26:00,63.1,61.9,29.77,SSW,212,1.0,6.0,96,0.02,,---,0.01,0.00,VWS V14.01,2013-05-24 04:26:00,
2013-05-24 00:30:00,63.0,61.8,29.77,SSW,212,3.0,6.0,96,0.02,,---,0.01,0.00,VWS V14.01,2013-05-24 04:30:00,
2013-05-24 00:32:00,63.1,61.9,29.77,SSW,212,2.0,3.0,96,0.01,,---,0.01,0.00,VWS V14.01,2013-05-24 04:32:00,
2013-05-24 00:37:00,63.0,61.8,29.77,SSW,212,2.0,3.0,96,0.01,,---,0.01,0.00,VWS V14.01,2013-05-24 04:37:00,
2013-05-24 00:42:00,62.9,61.8,29.77,SW,215,2.0,5.0,96,0.01,,---,0.01,0.00,VWS V14.01,2013-05-24 04:42:00,
2013-05-24 00:47:00,62.9,61.8,29.77,SW,215,1.0,5.0,96,0.01,,---,0.01,0.00,VWS V14.01,2013-05-24 04:47:00,
2013-05-24 00:52:00,62.8,61.7,29.77,SW,215,2.0,5.0,96,0.01,,---,0.01,0.00,VWS V14.01,2013-05-24 04:52:00,
2013-05-24 00:57:00,62.8,61.7,29.77,SW,215,0.0,5.0,96,0.01,,---,0.01,0.00,VWS V14.01,2013-05-24 04:57:00,
2013-05-24 01:00:00,62.8,61.7,29.77,SW,215,3.0,5.0,96,0.01,,---,0.01,0.00,VWS V14.01,2013-05-24 05:00:00,
2013-05-24 01:02:00,62.8,61.7,29.77,SW,215,0.0,3.0,96,0.01,,---,0.01,0.00,VWS V14.01,2013-05-24 05:02:00,
2013-05-24 01:07:00,62.8,61.7,29.76,SW,215,0.0,3.0,96,0.01,,---,0.01,0.00,VWS V14.01,2013-05-24 05:07:00,
2013-05-24 01:12:00,62.7,61.5,29.76,SW,215,0.0,3.0,96,0.01,,---,0.01,0.00,VWS V14.01,2013-05-24 05:12:00,
2013-05-24 01:17:00,62.7,61.5,29.76,SW,215,0.0,3.0,96,0.01,,---,0.01,0.00,VWS V14.01,2013-05-24 05:17:00,
2013-05-24 01:22:00,62.7,61.5,29.75,SW,215,0.0,3.0,96,0.01,,---,0.01,0.00,VWS V14.01,2013-05-24 05:22:00,
2013-05-24 01:27:00,62.6,61.5,29.75,SW,215,2.0,3.0,96,0.01,,---,0.01,0.00,VWS V14.01,2013-05-24 05:27:00,
2013-05-24 01:30:00,62.6,61.5,29.75,SW,215,2.0,3.0,96,0.01,,---,0.01,0.00,VWS V14.01,2013-05-24 05:30:00,
2013-05-24 01:32:00,62.5,61.3,29.76,SW,215,1.0,2.0,96,0.00,,---,0.01,0.00,VWS V14.01,2013-05-24 05:32:00,
2013-05-24 01:37:00,62.5,61.3,29.75,SW,215,0.0,3.0,96,0.00,,---,0.01,0.00,VWS V14.01,2013-05-24 05:37:00,
2013-05-24 01:42:00,62.4,61.2,29.75,SW,215,1.0,3.0,96,0.00,,---,0.01,0.00,VWS V14.01,2013-05-24 05:42:00,
2013-05-24 01:47:00,62.4,61.5,29.75,SW,215,1.0,4.0,97,0.00,,---,0.01,0.00,VWS V14.01,2013-05-24 05:47:00,
2013-05-24 01:52:00,62.4,61.2,29.74,SW,215,2.0,4.0,96,0.00,,---,0.01,0.00,VWS V14.01,2013-05-24 05:52:00,
2013-05-24 01:57:00,62.4,61.2,29.74,WSW,247,2.0,5.0,96,0.00,,---,0.01,0.00,VWS V14.01,2013-05-24 05:57:00,
2013-05-24 02:00:00,62.4,61.2,29.74,WSW,247,1.0,5.0,96,0.00,,---,0.01,0.00,VWS V14.01,2013-05-24 06:00:00,
2013-05-24 02:02:00,62.4,61.2,29.74,WSW,247,2.0,4.0,96,0.00,,---,0.01,0.00,VWS V14.01,2013-05-24 06:02:00,
2013-05-24 02:07:00,62.5,61.3,29.74,WSW,244,5.0,5.0,96,0.00,,---,0.01,0.00,VWS V14.01,2013-05-24 06:07:00,
2013-05-24 02:12:00,62.4,61.2,29.74,WSW,250,4.0,8.0,96,0.00,,---,0.01,0.00,VWS V14.01,2013-05-24 06:12:00,
2013-05-24 02:17:00,62.4,61.2,29.74,West,269,8.0,10.0,96,0.00,,---,0.01,0.00,VWS V14.01,2013-05-24 06:17:00,
2013-05-24 02:22:00,62.4,61.2,29.73,WSW,246,11.0,11.0,96,0.00,,---,0.01,0.00,VWS V14.01,2013-05-24 06:22:00,
2013-05-24 02:27:00,62.4,61.2,29.73,WNW,292,4.0,13.0,96,0.00,,---,0.01,0.00,VWS V14.01,2013-05-24 06:27:00,
2013-05-24 02:30:00,62.3,61.2,29.73,WNW,293,5.0,13.0,96,0.00,,---,0.01,0.00,VWS V14.01,2013-05-24 06:30:00,
2013-05-24 02:32:00,62.3,61.2,29.73,West,262,5.0,12.0,96,0.00,,---,0.01,0.00,VWS V14.01,2013-05-24 06:32:00,
2013-05-24 02:37:00,62.3,61.2,29.73,West,271,4.0,12.0,96,0.00,,---,0.01,0.00,VWS V14.01,2013-05-24 06:37:00,
2013-05-24 02:42:00,62.4,61.2,29.73,West,271,9.0,13.0,96,0.00,,---,0.01,0.00,VWS V14.01,2013-05-24 06:42:00,
2013-05-24 02:47:00,62.5,61.0,29.73,West,266,4.0,13.0,95,0.00,,---,0.01,0.00,VWS V14.01,2013-05-24 06:47:00,
2013-05-24 02:53:00,62.5,61.0,29.73,West,278,6.0,16.0,95,0.00,,---,0.01,0.00,VWS V14.01,2013-05-24 06:53:00,
2013-05-24 02:58:00,62.7,61.0,29.73,West,274,9.0,16.0,94,0.00,,---,0.01,0.00,VWS V14.01,2013-05-24 06:58:00,
2013-05-24 03:00:00,62.7,60.7,29.73,WNW,284,10.0,16.0,93,0.00,,---,0.01,0.00,VWS V14.01,2013-05-24 07:00:00,
2013-05-24 03:03:00,62.8,60.8,29.73,West,268,12.0,14.0,93,0.00,,---,0.01,0.00,VWS V14.01,2013-05-24 07:03:00,
2013-05-24 03:08:00,62.9,60.5,29.73,West,263,5.0,14.0,92,0.00,,---,0.01,0.00,VWS V14.01,2013-05-24 07:08:00,
2013-05-24 03:13:00,62.9,59.9,29.73,West,263,11.0,16.0,90,0.00,,---,0.01,0.00,VWS V14.01,2013-05-24 07:13:00,
2013-05-24 03:18:00,63.1,59.8,29.73,SW,235,6.0,16.0,89,0.00,,---,0.01,0.00,VWS V14.01,2013-05-24 07:18:00,
2013-05-24 03:23:00,63.2,59.9,29.72,West,269,12.0,16.0,89,0.00,,---,0.01,0.00,VWS V14.01,2013-05-24 07:23:00,
2013-05-24 03:28:00,63.3,59.7,29.72,WNW,286,7.0,16.0,88,0.00,,---,0.01,0.00,VWS V14.01,2013-05-24 07:28:00,
2013-05-24 03:30:00,63.3,59.7,29.72,WNW,285,11.0,17.0,88,0.00,,---,0.01,0.00,VWS V14.01,2013-05-24 07:30:00,
2013-05-24 03:33:00,63.3,59.4,29.72,West,262,6.0,16.0,87,0.00,,---,0.01,0.00,VWS V14.01,2013-05-24 07:33:00,
2013-05-24 03:38:00,63.3,59.4,29.73,West,259,6.0,16.0,87,0.00,,---,0.01,0.00,VWS V14.01,2013-05-24 07:38:00,
2013-05-24 03:43:00,63.4,59.5,29.73,West,271,5.0,16.0,87,0.00,,---,0.01,0.00,VWS V14.01,2013-05-24 07:43:00,
2013-05-24 03:48:00,63.4,59.5,29.73,West,263,10.0,16.0,87,0.00,,---,0.01,0.00,VWS V14.01,2013-05-24 07:48:00,
2013-05-24 03:53:00,63.4,59.2,29.73,WNW,284,4.0,16.0,86,0.00,,---,0.01,0.00,VWS V14.01,2013-05-24 07:53:00,
2013-05-24 03:58:00,63.5,59.2,29.73,West,261,5.0,16.0,86,0.00,,---,0.01,0.00,VWS V14.01,2013-05-24 07:58:00,
2013-05-24 04:00:00,63.5,58.9,29.73,West,274,7.0,16.0,85,0.00,,---,0.01,0.00,VWS V14.01,2013-05-24 08:00:00,
2013-05-24 04:03:00,63.5,58.9,29.73,NW,318,4.0,10.0,85,0.00,,---,0.01,0.00,VWS V14.01,2013-05-24 08:03:00,
2013-05-24 04:08:00,63.5,58.9,29.73,WNW,282,4.0,12.0,85,0.00,,---,0.01,0.00,VWS V14.01,2013-05-24 08:08:00,
2013-05-24 04:13:00,63.5,58.9,29.74,West,279,4.0,15.0,85,0.00,,---,0.01,0.00,VWS V14.01,2013-05-24 08:13:00,
2013-05-24 04:18:00,63.5,58.9,29.74,West,271,4.0,15.0,85,0.00,,---,0.01,0.00,VWS V14.01,2013-05-24 08:18:00,
2013-05-24 04:23:00,63.4,58.8,29.74,West,277,7.0,15.0,85,0.00,,---,0.01,0.00,VWS V14.01,2013-05-24 08:23:00,
2013-05-24 04:28:00,63.4,58.8,29.74,WNW,296,10.0,15.0,85,0.00,,---,0.01,0.00,VWS V14.01,2013-05-24 08:28:00,
2013-05-24 04:30:00,63.4,58.8,29.74,West,277,4.0,15.0,85,0.00,,---,0.01,0.00,VWS V14.01,2013-05-24 08:30:00,
2013-05-24 04:33:00,63.4,58.8,29.74,NW,318,4.0,10.0,85,0.00,,---,0.01,0.00,VWS V14.01,2013-05-24 08:33:00,
2013-05-24 04:38:00,63.4,58.8,29.74,NW,319,4.0,14.0,85,0.00,,---,0.01,0.00,VWS V14.01,2013-05-24 08:38:00,
2013-05-24 04:43:00,63.4,58.8,29.75,NW,319,6.0,14.0,85,0.00,,---,0.01,0.00,VWS V14.01,2013-05-24 08:43:00,
2013-05-24 04:48:00,63.4,58.8,29.75,WNW,288,11.0,14.0,85,0.00,,---,0.01,0.00,VWS V14.01,2013-05-24 08:48:00,
2013-05-24 04:53:00,63.3,58.7,29.75,West,262,7.0,14.0,85,0.00,,---,0.01,0.00,VWS V14.01,2013-05-24 08:53:00,
2013-05-24 04:59:00,63.3,58.7,29.75,NW,316,4.0,14.0,85,0.00,,---,0.01,0.00,VWS V14.01,2013-05-24 08:59:00,
2013-05-24 05:00:00,63.2,58.6,29.76,WNW,299,6.0,14.0,85,0.00,,---,0.01,0.00,VWS V14.01,2013-05-24 09:00:00,
2013-05-24 05:04:00,63.2,58.6,29.76,NW,310,7.0,10.0,85,0.00,,---,0.01,0.00,VWS V14.01,2013-05-24 09:04:00,
2013-05-24 05:09:00,63.1,58.5,29.76,NW,318,6.0,10.0,85,0.00,,---,0.01,0.00,VWS V14.01,2013-05-24 09:09:00,
2013-05-24 05:14:00,63.1,58.5,29.77,West,278,7.0,12.0,85,0.00,,---,0.01,0.00,VWS V14.01,2013-05-24 09:14:00,
2013-05-24 05:19:00,63.0,58.4,29.77,NNW,330,5.0,12.0,85,0.00,,---,0.01,0.00,VWS V14.01,2013-05-24 09:19:00,
2013-05-24 05:24:00,63.0,58.4,29.76,NW,304,6.0,12.0,85,0.00,,---,0.01,0.00,VWS V14.01,2013-05-24 09:24:00,
2013-05-24 05:29:00,62.9,58.3,29.77,WNW,285,5.0,13.0,85,0.00,,---,0.01,0.00,VWS V14.01,2013-05-24 09:29:00,
2013-05-24 05:30:00,62.9,58.3,29.77,West,275,6.0,13.0,85,0.00,,---,0.01,0.00,VWS V14.01,2013-05-24 09:30:00,
2013-05-24 05:34:00,62.8,58.6,29.77,NW,309,2.0,8.0,86,0.00,,---,0.01,0.00,VWS V14.01,2013-05-24 09:34:00,
2013-05-24 05:39:00,62.6,58.0,29.77,WNW,289,8.0,17.0,85,0.00,,---,0.01,0.00,VWS V14.01,2013-05-24 09:39:00,
2013-05-24 05:44:00,62.6,57.7,29.78,West,275,6.0,17.0,84,0.00,,---,0.01,0.00,VWS V14.01,2013-05-24 09:44:00,
2013-05-24 05:49:00,62.4,57.8,29.78,WSW,250,14.0,17.0,85,0.00,,---,0.01,0.00,VWS V14.01,2013-05-24 09:49:00,
2013-05-24 05:54:00,62.2,57.3,29.79,SW,227,7.0,21.0,84,0.00,,---,0.01,0.00,VWS V14.01,2013-05-24 09:54:00,
2013-05-24 05:59:00,61.8,56.6,29.80,WNW,285,11.0,22.0,83,0.01,,---,0.02,0.00,VWS V14.01,2013-05-24 09:59:00,
2013-05-24 06:00:00,61.7,56.2,29.80,WSW,258,13.0,22.0,82,0.01,,---,0.02,0.00,VWS V14.01,2013-05-24 10:00:00,
2013-05-24 06:04:00,61.3,55.1,29.80,WNW,294,12.0,20.0,80,0.01,,---,0.02,0.00,VWS V14.01,2013-05-24 10:04:00,
2013-05-24 06:09:00,60.6,54.4,29.81,WNW,285,9.0,20.0,80,0.01,,---,0.02,0.00,VWS V14.01,2013-05-24 10:09:00,
2013-05-24 06:14:00,60.0,53.8,29.81,WNW,284,6.0,20.0,80,0.01,,---,0.02,0.00,VWS V14.01,2013-05-24 10:14:00,
2013-05-24 06:19:00,59.5,53.3,29.82,NW,307,13.0,20.0,80,0.01,,---,0.02,5.00,VWS V14.01,2013-05-24 10:19:00,
2013-05-24 06:24:00,58.9,52.4,29.83,West,273,12.0,21.0,79,0.01,,---,0.02,7.00,VWS V14.01,2013-05-24 10:24:00,
2013-05-24 06:29:00,58.3,52.2,29.83,NW,306,11.0,21.0,80,0.01,,---,0.02,11.00,VWS V14.01,2013-05-24 10:29:00,
2013-05-24 06:30:00,58.2,52.1,29.83,NW,318,10.0,21.0,80,0.01,,---,0.02,11.00,VWS V14.01,2013-05-24 10:30:00,
2013-05-24 06:34:00,57.9,51.8,29.83,WNW,298,12.0,16.0,80,0.01,,---,0.02,9.00,VWS V14.01,2013-05-24 10:34:00,
2013-05-24 06:39:00,57.4,51.3,29.83,West,259,6.0,18.0,80,0.01,,---,0.02,11.00,VWS V14.01,2013-05-24 10:39:00,
2013-05-24 06:44:00,57.1,50.7,29.84,NW,304,12.0,19.0,79,0.01,,---,0.02,11.00,VWS V14.01,2013-05-24 10:44:00,
2013-05-24 06:49:00,56.7,49.9,29.84,West,271,12.0,19.0,78,0.01,,---,0.02,12.00,VWS V14.01,2013-05-24 10:49:00,
2013-05-24 06:54:00,56.4,50.0,29.86,WNW,282,8.0,19.0,79,0.01,,---,0.02,14.00,VWS V14.01,2013-05-24 10:54:00,
2013-05-24 06:59:00,56.2,49.1,29.86,NW,319,2.0,19.0,77,0.01,,---,0.02,19.00,VWS V14.01,2013-05-24 10:59:00,
2013-05-24 07:00:00,56.1,49.0,29.86,NW,308,10.0,19.0,77,0.01,,---,0.02,19.00,VWS V14.01,2013-05-24 11:00:00,
2013-05-24 07:04:00,56.0,49.2,29.87,West,268,8.0,17.0,78,0.00,,---,0.02,19.00,VWS V14.01,2013-05-24 11:04:00,
2013-05-24 07:10:00,55.8,49.0,29.87,West,280,7.0,17.0,78,0.00,,---,0.02,21.00,VWS V14.01,2013-05-24 11:10:00,
2013-05-24 07:15:00,55.6,48.9,29.87,WNW,282,1.0,18.0,78,0.00,,---,0.02,25.00,VWS V14.01,2013-05-24 11:15:00,
2013-05-24 07:20:00,55.4,49.0,29.88,West,261,8.0,18.0,79,0.00,,---,0.02,30.00,VWS V14.01,2013-05-24 11:20:00,
2013-05-24 07:25:00,55.3,48.9,29.88,NW,304,4.0,18.0,79,0.00,,---,0.02,33.00,VWS V14.01,2013-05-24 11:25:00,
2013-05-24 07:30:00,55.2,48.8,29.88,WNW,300,4.0,18.0,79,0.00,,---,0.02,33.00,VWS V14.01,2013-05-24 11:30:00,
2013-05-24 07:35:00,55.1,48.4,29.88,West,271,4.0,13.0,78,0.00,,---,0.02,35.00,VWS V14.01,2013-05-24 11:35:00,
2013-05-24 07:40:00,55.0,48.3,29.89,WSW,246,10.0,13.0,78,0.00,,---,0.02,42.00,VWS V14.01,2013-05-24 11:40:00,
2013-05-24 07:45:00,55.0,47.9,29.89,NNW,340,6.0,13.0,77,0.00,,---,0.02,40.00,VWS V14.01,2013-05-24 11:45:00,
2013-05-24 07:50:00,54.8,47.4,29.90,West,280,5.0,17.0,76,0.00,,---,0.02,49.00,VWS V14.01,2013-05-24 11:50:00,
2013-05-24 07:55:00,54.8,47.4,29.90,WNW,294,3.0,17.0,76,0.00,,---,0.02,44.00,VWS V14.01,2013-05-24 11:55:00,
2013-05-24 08:00:00,54.6,47.2,29.90,NW,308,4.0,17.0,76,0.00,,---,0.02,49.00,VWS V14.01,2013-05-24 12:00:00,
2013-05-24 08:05:00,54.5,47.1,29.90,NW,310,7.0,17.0,76,0.00,,---,0.02,47.00,VWS V14.01,2013-05-24 12:05:00,
2013-05-24 08:10:00,54.4,47.0,29.90,NW,309,5.0,17.0,76,0.00,,---,0.02,60.00,VWS V14.01,2013-05-24 12:10:00,
2013-05-24 08:15:00,54.3,47.2,29.90,North,349,9.0,17.0,77,0.00,,---,0.02,79.00,VWS V14.01,2013-05-24 12:15:00,
2013-05-24 08:20:00,54.2,47.2,29.91,NW,315,1.0,17.0,77,0.00,,---,0.02,102.00,VWS V14.01,2013-05-24 12:20:00,
2013-05-24 08:25:00,54.2,47.5,29.91,NNW,329,8.0,17.0,78,0.00,,---,0.02,107.00,VWS V14.01,2013-05-24 12:25:00,
2013-05-24 08:30:00,54.1,47.7,29.91,West,277,9.0,17.0,79,0.00,,---,0.02,111.00,VWS V14.01,2013-05-24 12:30:00,
2013-05-24 08:35:00,54.0,47.6,29.91,WNW,299,5.0,10.0,79,0.00,,---,0.02,98.00,VWS V14.01,2013-05-24 12:35:00,
2013-05-24 08:40:00,54.0,48.0,29.91,NW,305,4.0,10.0,80,0.00,,---,0.02,69.00,VWS V14.01,2013-05-24 12:40:00,
2013-05-24 08:45:00,53.9,48.2,29.92,NNW,334,6.0,13.0,81,0.00,,---,0.02,69.00,VWS V14.01,2013-05-24 12:45:00,
2013-05-24 08:50:00,53.6,47.3,29.92,West,275,12.0,15.0,79,0.00,,---,0.02,77.00,VWS V14.01,2013-05-24 12:50:00,
2013-05-24 08:55:00,53.5,47.2,29.92,NNW,327,8.0,17.0,79,0.00,,---,0.02,90.00,VWS V14.01,2013-05-24 12:55:00,
2013-05-24 09:00:00,53.3,46.6,29.92,WNW,293,11.0,17.0,78,0.00,,---,0.02,93.00,VWS V14.01,2013-05-24 13:00:00,
2013-05-24 09:05:00,53.2,46.2,29.93,NW,311,12.0,16.0,77,0.00,,---,0.02,121.00,VWS V14.01,2013-05-24 13:05:00,
2013-05-24 09:10:00,53.2,46.2,29.92,WNW,289,14.0,21.0,77,0.00,,---,0.02,179.00,VWS V14.01,2013-05-24 13:10:00,
2013-05-24 09:15:00,53.2,45.8,29.93,West,277,9.0,21.0,76,0.00,,---,0.02,216.00,VWS V14.01,2013-05-24 13:15:00,
2013-05-24 09:20:00,53.2,45.5,29.92,NNW,338,10.0,21.0,75,0.00,,---,0.02,163.00,VWS V14.01,2013-05-24 13:20:00,
2013-05-24 09:25:00,53.0,45.0,29.93,NNW,335,11.0,21.0,74,0.00,,---,0.02,158.00,VWS V14.01,2013-05-24 13:25:00,
2013-05-24 09:30:00,53.0,45.0,29.93,NW,314,7.0,21.0,74,0.00,,---,0.02,227.00,VWS V14.01,2013-05-24 13:30:00,
2013-05-24 09:35:00,53.0,45.0,29.93,West,270,6.0,17.0,74,0.00,,---,0.02,234.00,VWS V14.01,2013-05-24 13:35:00,
2013-05-24 09:40:00,53.0,45.0,29.93,West,275,7.0,17.0,74,0.00,,---,0.02,174.00,VWS V14.01,2013-05-24 13:40:00,
2013-05-24 09:45:00,53.1,45.4,29.94,West,277,7.0,17.0,75,0.00,,---,0.02,186.00,VWS V14.01,2013-05-24 13:45:00,
2013-05-24 09:50:00,53.1,44.7,29.94,NW,315,6.0,17.0,73,0.00,,---,0.02,192.00,VWS V14.01,2013-05-24 13:50:00,
2013-05-24 09:55:00,53.0,44.6,29.94,NNW,335,7.0,20.0,73,0.00,,---,0.02,149.00,VWS V14.01,2013-05-24 13:55:00,
2013-05-24 10:00:00,52.9,44.5,29.94,NW,325,10.0,20.0,73,0.00,,---,0.02,127.00,VWS V14.01,2013-05-24 14:00:00,
2013-05-24 10:05:00,52.8,44.8,29.95,WSW,246,7.0,15.0,74,0.00,,---,0.02,183.00,VWS V14.01,2013-05-24 14:05:00,
2013-05-24 10:11:00,52.6,43.8,29.94,NW,311,9.0,22.0,72,0.00,,---,0.02,176.00,VWS V14.01,2013-05-24 14:11:00,
2013-05-24 10:16:00,52.4,44.4,29.95,West,279,13.0,22.0,74,0.00,,---,0.02,244.00,VWS V14.01,2013-05-24 14:16:00,
2013-05-24 10:21:00,52.3,44.3,29.95,NNW,333,9.0,22.0,74,0.00,,---,0.02,225.00,VWS V14.01,2013-05-24 14:21:00,
2013-05-24 10:26:00,52.2,43.8,29.95,WNW,294,11.0,22.0,73,0.00,,---,0.02,204.00,VWS V14.01,2013-05-24 14:26:00,
2013-05-24 10:30:00,52.1,43.4,29.96,NW,312,4.0,22.0,72,0.00,,---,0.02,178.00,VWS V14.01,2013-05-24 14:30:00,
2013-05-24 10:31:00,52.1,43.4,29.96,NW,312,3.0,4.0,72,0.00,,---,0.02,178.00,VWS V14.01,2013-05-24 14:31:00,
2013-05-24 10:36:00,52.0,43.3,29.97,NW,304,8.0,19.0,72,0.00,,---,0.02,239.00,VWS V14.01,2013-05-24 14:36:00,
2013-05-24 10:41:00,52.0,43.3,29.97,WNW,301,9.0,22.0,72,0.00,,---,0.02,227.00,VWS V14.01,2013-05-24 14:41:00,
2013-05-24 10:46:00,51.9,43.2,29.97,NW,313,7.0,22.0,72,0.00,,---,0.02,278.00,VWS V14.01,2013-05-24 14:46:00,
2013-05-24 10:51:00,52.0,43.6,29.97,NNW,333,6.0,22.0,73,0.00,,---,0.02,253.00,VWS V14.01,2013-05-24 14:51:00,
2013-05-24 10:56:00,52.0,43.3,29.98,NW,321,13.0,22.0,72,0.00,,---,0.02,200.00,VWS V14.01,2013-05-24 14:56:00,
2013-05-24 11:00:00,51.8,42.7,29.98,WSW,253,8.0,22.0,71,0.00,,---,0.02,229.00,VWS V14.01,2013-05-24 15:00:00,
2013-05-24 11:01:00,51.9,43.2,29.97,NNW,333,6.0,8.0,72,0.00,,---,0.02,229.00,VWS V14.01,2013-05-24 15:01:00,
2013-05-24 11:06:00,51.9,43.2,29.98,NW,307,2.0,18.0,72,0.00,,---,0.02,253.00,VWS V14.01,2013-05-24 15:06:00,
2013-05-24 11:11:00,52.0,43.3,29.97,NNW,327,9.0,18.0,72,0.00,,---,0.02,424.00,VWS V14.01,2013-05-24 15:11:00,
2013-05-24 11:16:00,52.4,44.0,29.97,NNW,331,4.0,18.0,73,0.00,,---,0.02,439.00,VWS V14.01,2013-05-24 15:16:00,
2013-05-24 11:21:00,52.9,44.5,29.98,WSW,254,6.0,18.0,73,0.00,,---,0.02,246.00,VWS V14.01,2013-05-24 15:21:00,
2013-05-24 11:26:00,53.1,44.0,29.97,NNW,342,9.0,18.0,71,0.00,,---,0.02,308.00,VWS V14.01,2013-05-24 15:26:00,
2013-05-24 11:30:00,53.2,44.8,29.98,West,277,8.0,18.0,73,0.00,,---,0.02,499.00,VWS V14.01,2013-05-24 15:30:00,
2013-05-24 11:31:00,53.2,44.8,29.98,NW,320,6.0,12.0,73,0.00,,---,0.02,454.00,VWS V14.01,2013-05-24 15:31:00,
2013-05-24 11:36:00,53.4,44.6,29.98,WNW,294,10.0,17.0,72,0.00,,---,0.02,323.00,VWS V14.01,2013-05-24 15:36:00,
2013-05-24 11:41:00,53.3,44.5,29.98,NW,305,5.0,17.0,72,0.00,,---,0.02,264.00,VWS V14.01,2013-05-24 15:41:00,
2013-05-24 11:46:00,53.1,43.6,29.98,North,355,9.0,17.0,70,0.00,,---,0.02,308.00,VWS V14.01,2013-05-24 15:46:00,
2013-05-24 11:51:00,53.0,43.9,29.98,WSW,241,11.0,18.0,71,0.00,,---,0.02,364.00,VWS V14.01,2013-05-24 15:51:00,
2013-05-24 11:56:00,52.8,43.7,29.98,West,272,8.0,18.0,71,0.00,,---,0.02,480.00,VWS V14.01,2013-05-24 15:56:00,
2013-05-24 12:00:00,53.0,43.9,29.98,NW,315,7.0,18.0,71,0.00,,---,0.02,462.00,VWS V14.01,2013-05-24 16:00:00,
2013-05-24 12:01:00,53.0,43.9,29.98,West,269,8.0,8.0,71,0.00,,---,0.02,485.00,VWS V14.01,2013-05-24 16:01:00,
2013-05-24 12:06:00,53.3,44.2,29.98,NW,319,5.0,18.0,71,0.00,,---,0.02,508.00,VWS V14.01,2013-05-24 16:06:00,
2013-05-24 12:11:00,53.6,44.1,29.98,NW,319,8.0,18.0,70,0.00,,---,0.02,548.00,VWS V14.01,2013-05-24 16:11:00,
2013-05-24 12:16:00,54.1,44.2,29.98,WSW,246,9.0,18.0,69,0.00,,---,0.02,510.00,VWS V14.01,2013-05-24 16:16:00,
2013-05-24 12:21:00,54.0,43.7,29.98,NNW,334,9.0,18.0,68,0.00,,---,0.02,373.00,VWS V14.01,2013-05-24 16:21:00,
2013-05-24 12:26:00,53.7,43.8,29.99,NW,308,7.0,18.0,69,0.00,,---,0.02,304.00,VWS V14.01,2013-05-24 16:26:00,
2013-05-24 12:30:00,53.5,43.2,29.99,WNW,296,4.0,18.0,68,0.00,,---,0.02,232.00,VWS V14.01,2013-05-24 16:30:00,
2013-05-24 12:31:00,53.5,43.6,29.99,West,266,5.0,7.0,69,0.00,,---,0.02,211.00,VWS V14.01,2013-05-24 16:31:00,
2013-05-24 12:36:00,53.4,43.9,29.99,WNW,302,5.0,14.0,70,0.00,,---,0.02,214.00,VWS V14.01,2013-05-24 16:36:00,
2013-05-24 12:41:00,53.4,44.2,30.00,NW,306,9.0,14.0,71,0.00,,---,0.02,341.00,VWS V14.01,2013-05-24 16:41:00,
2013-05-24 12:46:00,53.3,43.4,30.00,NNE,17,6.0,16.0,69,0.00,,---,0.02,350.00,VWS V14.01,2013-05-24 16:46:00,
2013-05-24 12:51:00,53.0,43.1,30.00,NW,325,11.0,21.0,69,0.00,,---,0.02,392.00,VWS V14.01,2013-05-24 16:51:00,
2013-05-24 12:56:00,53.2,43.7,30.00,NW,322,11.0,21.0,70,0.00,,---,0.02,490.00,VWS V14.01,2013-05-24 16:56:00,
2013-05-24 13:00:00,53.5,43.2,29.99,WNW,290,18.0,21.0,68,0.00,,---,0.02,360.00,VWS V14.01,2013-05-24 17:00:00,
2013-05-24 13:01:00,53.5,43.6,30.00,WNW,282,6.0,18.0,69,0.00,,---,0.02,339.00,VWS V14.01,2013-05-24 17:01:00,
2013-05-24 13:07:00,53.6,44.1,30.00,NNW,327,11.0,19.0,70,0.00,,---,0.02,475.00,VWS V14.01,2013-05-24 17:07:00,
2013-05-24 13:12:00,53.7,43.8,29.99,NW,310,12.0,19.0,69,0.00,,---,0.02,452.00,VWS V14.01,2013-05-24 17:12:00,
2013-05-24 13:17:00,53.8,43.1,30.00,NW,325,7.0,19.0,67,0.00,,---,0.02,452.00,VWS V14.01,2013-05-24 17:17:00,
2013-05-24 13:22:00,53.9,43.2,30.00,NNW,334,9.0,22.0,67,0.00,,---,0.02,466.00,VWS V14.01,2013-05-24 17:22:00,
2013-05-24 13:27:00,54.0,43.7,30.00,WNW,289,7.0,22.0,68,0.00,,---,0.02,476.00,VWS V14.01,2013-05-24 17:27:00,
2013-05-24 13:30:00,54.1,43.4,30.00,NNW,333,16.0,22.0,67,0.00,,---,0.02,478.00,VWS V14.01,2013-05-24 17:30:00,
2013-05-24 13:32:00,54.1,43.4,30.00,NW,317,19.0,24.0,67,0.00,,---,0.02,489.00,VWS V14.01,2013-05-24 17:32:00,
2013-05-24 13:37:00,54.1,43.4,30.01,North,5,9.0,24.0,67,0.00,,---,0.02,418.00,VWS V14.01,2013-05-24 17:37:00,
2013-05-24 13:42:00,54.1,43.4,30.01,WNW,283,4.0,26.0,67,0.00,,---,0.02,494.00,VWS V14.01,2013-05-24 17:42:00,
2013-05-24 13:47:00,54.4,44.1,30.01,West,279,16.0,26.0,68,0.00,,---,0.02,485.00,VWS V14.01,2013-05-24 17:47:00,
2013-05-24 13:52:00,54.6,43.9,30.00,NNE,26,5.0,26.0,67,0.00,,---,0.02,501.00,VWS V14.01,2013-05-24 17:52:00,
2013-05-24 13:57:00,54.9,44.9,30.01,NNW,328,9.0,26.0,69,0.00,,---,0.02,510.00,VWS V14.01,2013-05-24 17:57:00,
2013-05-24 14:00:00,55.3,44.9,30.01,West,280,17.0,26.0,68,0.00,,---,0.02,512.00,VWS V14.01,2013-05-24 18:00:00,
2013-05-24 14:02:00,55.5,45.1,30.01,NW,306,11.0,19.0,68,0.00,,---,0.02,492.00,VWS V14.01,2013-05-24 18:02:00,
2013-05-24 14:07:00,55.4,43.8,30.01,NE,38,12.0,19.0,65,0.00,,---,0.02,448.00,VWS V14.01,2013-05-24 18:07:00,
2013-05-24 14:12:00,55.2,44.5,30.01,NNE,19,9.0,9.0,67,0.00,,---,0.02,345.00,VWS V14.01,2013-05-24 18:12:00,
2013-05-24 14:17:00,55.1,44.0,30.01,North,5,9.0,13.0,66,0.00,,---,0.02,288.00,VWS V14.01,2013-05-24 18:17:00,
2013-05-24 14:23:00,55.0,44.3,30.01,West,280,11.0,15.0,67,0.00,,---,0.02,330.00,VWS V14.01,2013-05-24 18:23:00,
2013-05-24 14:28:00,54.7,44.0,30.01,WNW,293,16.0,21.0,67,0.00,,---,0.02,257.00,VWS V14.01,2013-05-24 18:28:00,
2013-05-24 14:30:00,54.4,42.5,30.01,West,263,10.0,21.0,64,0.00,,---,0.02,225.00,VWS V14.01,2013-05-24 18:30:00,
2013-05-24 14:33:00,54.3,43.2,30.01,NW,314,12.0,12.0,66,0.00,,---,0.02,239.00,VWS V14.01,2013-05-24 18:33:00,
2013-05-24 14:38:00,54.1,43.0,30.02,NNW,338,13.0,19.0,66,0.00,,---,0.02,362.00,VWS V14.01,2013-05-24 18:38:00,
2013-05-24 14:42:00,54.1,43.4,30.02,NNW,327,10.0,21.0,67,0.00,,---,0.02,315.00,VWS V14.01,2013-05-24 18:42:00,
2013-05-24 14:48:00,54.2,43.5,30.02,WNW,294,5.0,21.0,67,0.00,,---,0.02,394.00,VWS V14.01,2013-05-24 18:48:00,
2013-05-24 14:53:00,54.4,43.3,30.02,NW,323,8.0,21.0,66,0.00,,---,0.02,434.00,VWS V14.01,2013-05-24 18:53:00,
2013-05-24 14:58:00,54.6,43.9,30.02,WNW,282,3.0,21.0,67,0.00,,---,0.02,353.00,VWS V14.01,2013-05-24 18:58:00,
2013-05-24 15:00:00,54.7,44.0,30.02,West,267,8.0,21.0,67,0.00,,---,0.02,350.00,VWS V14.01,2013-05-24 19:00:00,
2013-05-24 15:03:00,54.8,44.1,30.02,North,350,7.0,13.0,67,0.00,,---,0.02,418.00,VWS V14.01,2013-05-24 19:03:00,
2013-05-24 15:08:00,54.9,43.0,30.02,NNW,346,11.0,16.0,64,0.00,,---,0.02,355.00,VWS V14.01,2013-05-24 19:08:00,
2013-05-24 15:13:00,54.8,42.9,30.02,NW,306,17.0,21.0,64,0.00,,---,0.02,306.00,VWS V14.01,2013-05-24 19:13:00,
2013-05-24 15:18:00,54.6,43.1,30.02,WNW,291,12.0,21.0,65,0.00,,---,0.02,287.00,VWS V14.01,2013-05-24 19:18:00,
2013-05-24 15:23:00,54.6,43.5,30.02,NNW,333,7.0,21.0,66,0.00,,---,0.02,334.00,VWS V14.01,2013-05-24 19:23:00,
2013-05-24 15:28:00,54.7,43.6,30.02,West,281,11.0,24.0,66,0.00,,---,0.02,315.00,VWS V14.01,2013-05-24 19:28:00,
2013-05-24 15:30:00,54.7,42.8,30.02,West,271,13.0,24.0,64,0.00,,---,0.02,432.00,VWS V14.01,2013-05-24 19:30:00,
2013-05-24 15:33:00,54.7,42.8,30.02,WNW,303,10.0,16.0,64,0.00,,---,0.02,327.00,VWS V14.01,2013-05-24 19:33:00,
2013-05-24 15:38:00,54.5,42.2,30.02,West,279,18.0,23.0,63,0.00,,---,0.02,255.00,VWS V14.01,2013-05-24 19:38:00,
2013-05-24 15:43:00,54.3,42.4,30.03,North,351,4.0,23.0,64,0.00,,---,0.02,229.00,VWS V14.01,2013-05-24 19:43:00,
2013-05-24 15:48:00,54.2,42.7,30.02,NNW,342,5.0,23.0,65,0.00,,---,0.02,264.00,VWS V14.01,2013-05-24 19:48:00,
2013-05-24 15:53:00,54.3,42.8,30.02,NW,313,7.0,23.0,65,0.00,,---,0.02,330.00,VWS V14.01,2013-05-24 19:53:00,
2013-05-24 15:58:00,54.5,43.0,30.03,WNW,284,6.0,23.0,65,0.00,,---,0.02,390.00,VWS V14.01,2013-05-24 19:58:00,
2013-05-24 16:00:00,54.6,41.9,30.03,NW,321,11.0,23.0,62,0.00,,---,0.02,345.00,VWS V14.01,2013-05-24 20:00:00,
2013-05-24 16:03:00,54.7,42.0,30.03,NNE,23,5.0,18.0,62,0.00,,---,0.02,360.00,VWS V14.01,2013-05-24 20:03:00,
2013-05-24 16:08:00,54.8,42.9,30.03,WNW,290,10.0,18.0,64,0.00,,---,0.02,362.00,VWS V14.01,2013-05-24 20:08:00,
2013-05-24 16:13:00,54.9,42.6,30.03,NW,305,6.0,18.0,63,0.00,,---,0.02,327.00,VWS V14.01,2013-05-24 20:13:00,
2013-05-24 16:18:00,55.1,43.2,30.03,NNW,337,9.0,18.0,64,0.00,,---,0.02,336.00,VWS V14.01,2013-05-24 20:18:00,
2013-05-24 16:23:00,55.2,42.4,30.03,NW,323,8.0,18.0,62,0.00,,---,0.02,274.00,VWS V14.01,2013-05-24 20:23:00,
2013-05-24 16:28:00,55.2,43.2,30.03,NW,316,5.0,18.0,64,0.00,,---,0.02,253.00,VWS V14.01,2013-05-24 20:28:00,
2013-05-24 16:30:00,55.2,42.8,30.03,WNW,294,8.0,18.0,63,0.00,,---,0.02,278.00,VWS V14.01,2013-05-24 20:30:00,
2013-05-24 16:33:00,55.2,42.8,30.03,NW,317,11.0,17.0,63,0.00,,---,0.02,221.00,VWS V14.01,2013-05-24 20:33:00,
2013-05-24 16:38:00,55.1,42.3,30.03,WNW,302,9.0,18.0,62,0.00,,---,0.02,218.00,VWS V14.01,2013-05-24 20:38:00,
2013-05-24 16:43:00,54.9,42.1,30.03,NW,309,8.0,24.0,62,0.00,,---,0.02,207.00,VWS V14.01,2013-05-24 20:43:00,
2013-05-24 16:56:00,55.0,43.1,30.04,WNW,292,9.0,24.0,64,0.00,,---,0.02,457.00,VWS V14.01,2013-05-24 20:56:00,
2013-05-24 17:00:00,55.2,41.6,30.04,WNW,302,10.0,24.0,60,0.00,,---,0.02,367.00,VWS V14.01,2013-05-24 21:00:00,
2013-05-24 17:01:00,55.2,41.6,30.04,WNW,302,10.0,24.0,60,0.00,,---,0.02,367.00,VWS V14.01,2013-05-24 21:01:00,
2013-05-24 17:06:00,55.2,41.6,30.05,NNE,14,4.0,23.0,60,0.00,,---,0.02,364.00,VWS V14.01,2013-05-24 21:06:00,
2013-05-24 17:11:00,55.3,42.5,30.04,WNW,292,11.0,23.0,62,0.00,,---,0.02,322.00,VWS V14.01,2013-05-24 21:11:00,
2013-05-24 17:16:00,55.4,41.8,30.05,NW,307,17.0,23.0,60,0.00,,---,0.02,327.00,VWS V14.01,2013-05-24 21:16:00,
2013-05-24 17:21:00,55.4,41.8,30.05,NNW,332,13.0,23.0,60,0.00,,---,0.02,241.00,VWS V14.01,2013-05-24 21:21:00,
2013-05-24 17:26:00,55.1,41.0,30.06,NW,314,16.0,23.0,59,0.00,,---,0.02,216.00,VWS V14.01,2013-05-24 21:26:00,
2013-05-24 17:30:00,54.9,40.9,30.05,WNW,294,6.0,23.0,59,0.00,,---,0.02,197.00,VWS V14.01,2013-05-24 21:30:00,
2013-05-24 17:31:00,54.9,40.9,30.06,WNW,290,9.0,9.0,59,0.00,,---,0.02,197.00,VWS V14.01,2013-05-24 21:31:00,
2013-05-24 17:36:00,54.8,41.2,30.06,WNW,284,7.0,14.0,60,0.00,,---,0.02,220.00,VWS V14.01,2013-05-24 21:36:00,
2013-05-24 17:41:00,54.6,39.7,30.06,WNW,293,9.0,17.0,57,0.00,,---,0.02,202.00,VWS V14.01,2013-05-24 21:41:00,
2013-05-24 17:46:00,54.4,40.4,30.06,NW,317,7.0,17.0,59,0.00,,---,0.02,223.00,VWS V14.01,2013-05-24 21:46:00,
2013-05-24 17:51:00,54.4,40.8,30.06,NW,306,16.0,18.0,60,0.00,,---,0.02,281.00,VWS V14.01,2013-05-24 21:51:00,
2013-05-24 17:56:00,54.4,41.2,30.06,NW,318,7.0,18.0,61,0.00,,---,0.02,202.00,VWS V14.01,2013-05-24 21:56:00,
2013-05-24 18:00:00,54.4,40.0,30.06,NNW,340,10.0,18.0,58,0.00,,---,0.02,149.00,VWS V14.01,2013-05-24 22:00:00,
2013-05-24 18:01:00,54.4,40.0,30.06,WNW,297,7.0,13.0,58,0.00,,---,0.02,149.00,VWS V14.01,2013-05-24 22:01:00,
2013-05-24 18:06:00,54.3,40.3,30.06,North,355,6.0,14.0,59,0.00,,---,0.02,132.00,VWS V14.01,2013-05-24 22:06:00,
2013-05-24 18:11:00,54.2,40.2,30.07,West,281,7.0,14.0,59,0.00,,---,0.02,113.00,VWS V14.01,2013-05-24 22:11:00,
2013-05-24 18:16:00,54.0,40.0,30.07,NW,324,7.0,14.0,59,0.00,,---,0.02,132.00,VWS V14.01,2013-05-24 22:16:00,
2013-05-24 18:21:00,54.0,39.6,30.07,NW,314,7.0,14.0,58,0.00,,---,0.02,128.00,VWS V14.01,2013-05-24 22:21:00,
2013-05-24 18:26:00,54.0,40.0,30.07,NW,311,2.0,14.0,59,0.00,,---,0.02,162.00,VWS V14.01,2013-05-24 22:26:00,
2013-05-24 18:30:00,54.0,39.6,30.07,West,273,8.0,20.0,58,0.00,,---,0.02,158.00,VWS V14.01,2013-05-24 22:30:00,
2013-05-24 18:31:00,54.0,39.6,30.07,NW,315,4.0,8.0,58,0.00,,---,0.02,162.00,VWS V14.01,2013-05-24 22:31:00,
2013-05-24 18:36:00,54.0,40.0,30.07,NW,313,9.0,16.0,59,0.00,,---,0.02,158.00,VWS V14.01,2013-05-24 22:36:00,
2013-05-24 18:41:00,54.0,38.7,30.08,NW,313,20.0,22.0,56,0.00,,---,0.02,174.00,VWS V14.01,2013-05-24 22:41:00,
2013-05-24 18:46:00,53.9,38.6,30.08,West,281,17.0,22.0,56,0.00,,---,0.02,120.00,VWS V14.01,2013-05-24 22:46:00,
2013-05-24 18:51:00,53.7,38.4,30.08,West,275,3.0,23.0,56,0.00,,---,0.02,114.00,VWS V14.01,2013-05-24 22:51:00,
2013-05-24 18:56:00,53.5,37.8,30.08,NW,308,9.0,23.0,55,0.00,,---,0.02,279.00,VWS V14.01,2013-05-24 22:56:00,
2013-05-24 19:00:00,53.4,38.1,30.08,North,350,10.0,23.0,56,0.00,,---,0.02,176.00,VWS V14.01,2013-05-24 23:00:00,
2013-05-24 19:01:00,53.3,38.0,30.08,NNW,334,7.0,12.0,56,0.00,,---,0.02,176.00,VWS V14.01,2013-05-24 23:01:00,
2013-05-24 19:07:00,53.1,38.3,30.08,WNW,289,2.0,16.0,57,0.00,,---,0.02,69.00,VWS V14.01,2013-05-24 23:07:00,
2013-05-24 19:12:00,53.0,38.6,30.08,NNW,330,9.0,16.0,58,0.00,,---,0.02,63.00,VWS V14.01,2013-05-24 23:12:00,
2013-05-24 19:17:00,52.7,37.9,30.08,West,277,9.0,22.0,57,0.00,,---,0.02,74.00,VWS V14.01,2013-05-24 23:17:00,
2013-05-24 19:22:00,52.4,37.2,30.09,NW,312,6.0,22.0,56,0.00,,---,0.02,67.00,VWS V14.01,2013-05-24 23:22:00,
2013-05-24 19:27:00,52.2,37.4,30.08,West,279,12.0,22.0,57,0.00,,---,0.02,35.00,VWS V14.01,2013-05-24 23:27:00,
2013-05-24 19:30:00,52.1,37.8,30.09,NW,313,6.0,22.0,58,0.00,,---,0.02,32.00,VWS V14.01,2013-05-24 23:30:00,
2013-05-24 19:32:00,52.0,37.2,30.09,NW,313,8.0,10.0,57,0.00,,---,0.02,32.00,VWS V14.01,2013-05-24 23:32:00,
2013-05-24 19:37:00,51.8,37.9,30.09,NNE,17,2.0,10.0,59,0.00,,---,0.02,30.00,VWS V14.01,2013-05-24 23:37:00,
2013-05-24 19:42:00,51.7,37.4,30.10,West,266,11.0,16.0,58,0.00,,---,0.02,28.00,VWS V14.01,2013-05-24 23:42:00,
2013-05-24 19:47:00,51.5,37.2,30.10,North,350,10.0,17.0,58,0.00,,---,0.02,23.00,VWS V14.01,2013-05-24 23:47:00,
2013-05-24 19:52:00,51.4,36.7,30.10,NW,315,8.0,18.0,57,0.00,,---,0.02,23.00,VWS V14.01,2013-05-24 23:52:00,
2013-05-24 19:57:00,51.2,36.5,30.10,WNW,298,9.0,18.0,57,0.00,,---,0.02,14.00,VWS V14.01,2013-05-24 23:57:00,
2013-05-24 20:00:00,51.1,36.4,30.10,WNW,288,10.0,19.0,57,0.00,,---,0.02,14.00,VWS V14.01,2013-05-25 00:00:00,
2013-05-24 20:02:00,51.0,36.8,30.10,NW,313,18.0,21.0,58,0.00,,---,0.02,14.00,VWS V14.01,2013-05-25 00:02:00,
2013-05-24 20:07:00,50.9,36.2,30.10,WNW,289,11.0,22.0,57,0.00,,---,0.02,12.00,VWS V14.01,2013-05-25 00:07:00,
2013-05-24 20:12:00,50.7,36.0,30.11,West,281,8.0,22.0,57,0.00,,---,0.02,11.00,VWS V14.01,2013-05-25 00:12:00,
2013-05-24 20:17:00,50.6,36.4,30.12,WNW,284,18.0,22.0,58,0.00,,---,0.02,7.00,VWS V14.01,2013-05-25 00:17:00,
2013-05-24 20:22:00,50.5,35.8,30.11,WNW,284,8.0,22.0,57,0.00,,---,0.02,5.00,VWS V14.01,2013-05-25 00:22:00,
2013-05-24 20:27:00,50.4,35.8,30.12,NW,308,6.0,22.0,57,0.00,,---,0.02,0.00,VWS V14.01,2013-05-25 00:27:00,
2013-05-24 20:30:00,50.3,36.1,30.12,WSW,244,4.0,22.0,58,0.00,,---,0.02,0.00,VWS V14.01,2013-05-25 00:30:00,
2013-05-24 20:32:00,50.2,36.0,30.12,NNW,327,5.0,5.0,58,0.00,,---,0.02,0.00,VWS V14.01,2013-05-25 00:32:00,
2013-05-24 20:37:00,50.0,35.8,30.12,NW,324,4.0,14.0,58,0.00,,---,0.02,0.00,VWS V14.01,2013-05-25 00:37:00,
2013-05-24 20:42:00,49.9,36.2,30.13,NNE,22,16.0,16.0,59,0.00,,---,0.02,0.00,VWS V14.01,2013-05-25 00:42:00,
2013-05-24 20:47:00,49.7,36.0,30.13,NW,325,3.0,18.0,59,0.00,,---,0.02,0.00,VWS V14.01,2013-05-25 00:47:00,
2013-05-24 20:52:00,49.6,35.9,30.13,North,351,4.0,18.0,59,0.00,,---,0.02,0.00,VWS V14.01,2013-05-25 00:52:00,
2013-05-24 20:57:00,49.5,35.8,30.13,ENE,63,3.0,18.0,59,0.00,,---,0.02,0.00,VWS V14.01,2013-05-25 00:57:00,
2013-05-24 21:00:00,49.4,36.1,30.13,North,5,5.0,18.0,60,0.00,,---,0.02,0.00,VWS V14.01,2013-05-25 01:00:00,
2013-05-24 21:02:00,49.3,35.6,30.14,NW,305,10.0,10.0,59,0.00,,---,0.02,0.00,VWS V14.01,2013-05-25 01:02:00,
2013-05-24 21:07:00,49.2,35.5,30.14,NW,307,5.0,11.0,59,0.00,,---,0.02,0.00,VWS V14.01,2013-05-25 01:07:00,
2013-05-24 21:12:00,49.1,35.4,30.14,NW,325,5.0,11.0,59,0.00,,---,0.02,0.00,VWS V14.01,2013-05-25 01:12:00,
2013-05-24 21:17:00,49.0,35.3,30.14,NW,312,16.0,16.0,59,0.00,,---,0.02,0.00,VWS V14.01,2013-05-25 01:17:00,
2013-05-24 21:22:00,48.9,34.8,30.15,NW,317,9.0,18.0,58,0.00,,---,0.02,0.00,VWS V14.01,2013-05-25 01:22:00,
2013-05-24 21:27:00,48.9,34.8,30.15,NNW,337,2.0,18.0,58,0.00,,---,0.02,0.00,VWS V14.01,2013-05-25 01:27:00,
2013-05-24 21:30:00,48.8,35.1,30.15,NW,308,1.0,18.0,59,0.00,,---,0.02,0.00,VWS V14.01,2013-05-25 01:30:00,
2013-05-24 22:00:00,48.1,34.9,30.16,NW,315,6.0,21.0,60,0.00,,---,0.02,0.00,VWS V14.01,2013-05-25 02:00:00,
2013-05-24 22:30:00,47.5,34.3,30.17,NW,315,7.0,17.0,60,0.00,,---,0.02,0.00,VWS V14.01,2013-05-25 02:30:00,
2013-05-24 23:00:00,47.3,34.1,30.18,NW,315,8.0,23.0,60,0.00,,---,0.02,0.00,VWS V14.01,2013-05-25 03:00:00,
2013-05-24 23:30:00,46.8,32.8,30.18,NW,315,9.0,20.0,58,0.00,,---,0.02,0.00,VWS V14.01,2013-05-25 03:30:00,